Location: Staunton
(38.1490°N, 79.0720°W)
Time: 05:36:37
(UTC-04:00)

ISS - Pass Details

Date: 22 May 2018
Orbit: 402 x 407 km, 51.6° (Epoch: 27 May)

Event Time Altitude Azimuth Distance (km) Brightness Sun altitude
Rises 03:16:58 0° 318° (NW) 2,317 0.2 -24.6°
Reaches altitude 10° 03:19:23 10° 335° (NNW) 1,456 -0.6 -24.4°
Maximum altitude 03:21:57 21° 27° (NNE) 965 -1.1 -24.1°
Drops below altitude 10° 03:24:31 10° 79° (E) 1,451 -0.5 -23.8°
Sets 03:26:55 0° 96° (E) 2,308 0.4 -23.5°
